Location: Camp Crooked Creek
(37.9149°N, 85.6607°W)
Time: 21:54:53
(UTC-05:00)

Daily predictions for brighter satellites

Satellite Brightness Start Highest point End
(mag) Time Altitude Azimuth Time Altitude Azimuth Time Altitude Azimuth
ATLAS 2AS CENTAUR R/B 3.3 17:38:35 10° NNW 17:46:24 49° NE 17:53:40 10° ESE
Cosmos 1455 Rocket 3.9 17:45:39 10° NNE 17:49:31 29° ENE 17:53:22 10° SE
BREEZE-M DEB (TANK) 3.5 17:42:58 10° NW 17:50:21 88° NE 17:54:01 10° SE
Cosmos 2366 rocket 4.4 17:45:44 10° N 17:51:44 42° ENE 17:57:38 10° SSE
CZ-3B DEB 1.7 17:49:57 10° SW 17:52:59 81° SE 18:00:30 10° NE
Cosmos 2181 Rocket 4.2 17:49:52 10° S 17:56:13 83° W 18:02:40 10° N
Cosmos 2218 Rocket 4.2 17:50:18 10° N 17:56:26 52° E 18:02:26 10° SSE
MSX 4.3 17:52:42 10° SE 17:58:00 39° ENE 18:03:17 10° N
CZ-4 R/B 1.4 17:57:54 10° SSE 18:02:05 79° ENE 18:06:15 10° N
Cosmos 2278 Rocket 2.5 17:57:05 10° S 18:02:28 48° ESE 18:07:53 10° NE
SMAP 3.1 17:58:28 10° SSE 18:03:02 61° ENE 18:07:38 10° N
Thor Agena Rocket 3.6 17:58:03 10° NNE 18:03:17 75° ESE 18:08:32 10° S
Cosmos 1238 Rocket 2.2 18:03:26 10° S 18:06:19 49° E 18:09:13 10° NNE
OTV 4 2.1 18:03:45 10° W 18:06:29 32° SSW 18:09:14 10° SE
OPS 8737 4.3 18:03:47 10° SSW 18:07:14 89° SE 18:10:24 10° NNE
SJ-12 3.8 18:03:15 10° SSE 18:07:19 76° ENE 18:11:27 10° N
CZ-2C R/B 2.4 18:04:20 10° SSE 18:09:15 74° ENE 18:14:22 10° N
Cosmos 1975 3.6 18:08:14 10° NNE 18:11:54 31° ENE 18:15:30 10° SE
COSMOS 2406 3.9 18:06:31 10° NNW 18:12:10 62° WSW 18:17:49 10° S
Meteor 1-12 Rocket 4.5 18:07:07 10° N 18:12:45 51° ENE 18:18:27 10° SSE
Cosmos 2251 Rocket 3.5 18:08:42 10° NNW 18:14:02 62° ENE 18:19:16 10° SSE
CRYOSAT 2 4.5 18:10:20 10° N 18:15:16 82° W 18:20:08 10° S
MOS 1 4.3 18:10:22 10° SSE 18:16:02 89° ENE 18:21:43 10° NNW
SL-27 R/B 2.6 18:16:57 10° NNW 18:20:38 83° WSW 18:24:15 10° SSE
Genesis I 4.5 18:18:38 10° N 18:21:44 21° NE 18:23:19 17° E
OE (NEXTSAT) 4.4 18:20:27 10° SW 18:24:00 71° SSE 18:26:20 20° ENE
SL-8 R/B 3.8 18:22:29 10° WSW 18:27:15 73° NNW 18:30:50 18° NE
Cosmos 1484 Rocket 3.0 18:24:51 10° SE 18:28:25 41° ENE 18:31:56 10° N
Cosmos 2082 Rocket 3.1 18:24:44 10° N 18:29:23 25° ENE 18:33:41 11° ESE
Cosmos 1833 Rocket 3.8 18:26:36 10° N 18:30:56 22° NE 18:33:05 18° E
Cosmos 1544 Rocket 4.3 18:33:33 10° NNW 18:37:57 58° W 18:42:19 10° S
COSMO-SKYMED 1 2.5 18:34:52 10° NNE 18:39:11 62° E 18:43:27 10° S
Cosmos 1500 3.2 18:38:19 10° N 18:42:06 57° E 18:45:53 10° SSE
Meteor 1-28 Rocket 3.6 18:45:30 30° NE 18:46:46 39° E 18:50:19 10° SSE
GRACE-2 4.4 18:44:31 10° SSE 18:46:42 40° ESE 18:46:42 40° ESE
Nadezhda 3 Rocket 4.0 18:41:24 10° S 18:47:28 62° E 18:53:38 10° NNE
GRACE-1 4.3 18:44:56 10° SSE 18:47:13 43° ESE 18:47:13 43° ESE
EP 1 4.2 18:46:24 10° SSW 18:49:04 60° ESE 18:49:06 60° ESE
SL-24 R/B - RUBIN 2 4.5 18:43:39 10° SSW 18:49:48 70° ESE 18:54:43 19° NE
NOSS 2-1 (E) 4.1 18:48:22 10° S 18:51:49 32° ESE 18:52:08 32° ESE
Meteor 2-14 Rocket 4.5 18:49:22 10° N 18:55:24 53° E 19:01:22 10° SSE
Cosmos 1536 Rocket 4.5 18:52:01 10° SSW 18:56:21 50° W 19:00:44 10° N
Tiangong 1 0.8 18:54:03 10° WSW 18:57:03 74° SSE 18:57:12 71° SE
GEOS 3 Rocket 3.7 18:53:31 17° ESE 18:57:19 51° NE 19:02:16 10° NNW
Meteor 2-4 Rocket 4.1 18:52:33 10° SSE 18:57:25 35° E 18:58:30 32° ENE
Okean 1 4.5 18:58:11 10° SSW 19:02:03 44° W 19:05:58 10° N
Cosmos 1025 Rocket 3.5 19:03:57 10° SSE 19:07:27 41° ESE 19:07:27 41° ESE
ATLAS 3B CENTAUR R/B 4.1 18:51:51 10° WSW 19:10:59 50° S 19:15:58 23° ESE
COSMOS 2487 2.3 19:08:35 10° NNW 19:12:12 89° ESE 19:13:00 52° SSE
Cosmos 921 Rocket 2.8 19:09:23 10° S 19:13:35 81° ESE 19:14:34 52° NNE
Meteor 2-21 Rocket 4.4 19:07:45 10° N 19:13:59 85° E 19:20:08 10° S
ISS -0.5 19:14:20 10° NNW 19:14:53 10° NNW 19:14:53 10° NNW
Cosmos 375 4.4 19:11:55 10° NW 19:16:10 76° WSW 19:17:40 35° SSE
Cosmos 1346 Rocket 3.9 19:14:15 10° SSW 19:17:58 42° WNW 19:20:56 15° N
Meteor 2-16 Rocket 4.3 19:12:03 10° N 19:18:09 75° E 19:24:12 10° SSE
Cosmos 1371 Rocket 4.1 19:14:21 10° S 19:19:34 56° ESE 19:20:09 53° ENE
BREEZE M DEB (TANK) 4.1 19:16:19 10° NW 19:20:20 41° NNE 19:21:54 37° ENE
NOSS 3-4 (A) 4.3 19:15:38 10° NNW 19:21:59 36° NE 19:21:59 36° NE
NOSS 3-4 (C) 4.4 19:15:45 10° NNW 19:22:03 35° NE 19:22:03 35° NE
Okean 1-7 Rocket 4.0 19:25:30 10° SSW 19:29:58 62° W 19:32:13 28° N
Cosmos 2297 4.0 19:26:34 10° SSW 19:32:09 63° WNW 19:35:05 28° N
ATLAS 2AS CENTAUR R/B 4.3 19:30:02 10° NW 19:37:13 38° WSW 19:43:54 10° S
Delta 2 Rocket 4.1 19:34:57 10° WSW 19:38:04 46° SW 19:38:04 46° SW
Cosmos 1934 Rocket 3.8 19:40:32 10° N 19:46:45 85° E 19:53:03 10° S
Cosmos 2278 Rocket 4.2 19:42:20 10° WSW 19:46:47 23° NW 19:51:13 10° N
Cosmos 2082 Rocket 3.2 20:08:16 10° NW 20:13:37 44° WSW 20:15:50 30° SSW
Cosmos 1833 Rocket 3.4 20:09:42 10° NNW 20:14:56 50° W 20:14:56 50° W
CZ-3B DEB 4.5 20:24:24 10° WNW 20:30:07 31° N 20:30:58 30° N
FALCON 9 R/B 4.3 21:08:14 10° W 21:15:38 33° W 21:15:38 33° W
